SCP
0 0 0 0 0 0 0 0 0 0 0 0 0 0 -0 0 -0 0 -0 -0 -1 -2 -1 -0 -1 -1 -1 -1 -0 -0 -0 -0 -0 -0 -0 -0 -1 -0 -0 -0 -0 -0 -0 -0 -0 -0 0 0 0
0 0 0 0 0 0 0 0 0 0 0 0 0 0 0 -0 0 0 -0 -0 -1 -2 -1 -1 -1 -1 -1 -1 -0 -0 -0 -0 -0 -0 -0 -0 -0 -0 -0 -0 -0 -0 -0 -0 -0 0 0 0 0
0 0 0 0 0 0 0 0 0 0 0 0 0 -0 0 -0 0 -0 0 -0 -1 -1 -1 -1 -1 -1 -1 -1 -1 -0 -0 -0 -0 -0 -0 -0 -0 -0 -0 -0 -0 -0 -0 0 0 0 0 0 0
0 0 0 0 0 0 0 0 0 0 0 0 0 0 0 0 -0 0 -0 -0 -1 -1 -1 -1 -1 -1 -1 -1 -0 -0 -0 -0 -0 -0 -0 -0 -0 -0 -0 -0 -0 -0 -0 0 0 0 0 0 0
0 0 0 0 0 0 0 0 -0 0 -0 0 0 0 -0 0 0 0 -0 0 0 -0 -0 -1 -1 -1 -1 -0 -0 -0 -0 -0 -0 -0 -0 -0 -0 -0 -0 -0 -0 0 0 0 0 0 -0 0 0
0 0 0 0 0 0 0 0 -0 -0 -0 -0 0 0 -0 1 1 0 0 0 0 0 0 0 -1 -1 -1 -1 -0 -0 -0 -0 -0 -0 -0 -0 -0 -0 -0 0 0 0 0 0 0 0 0 0 0
0 0 0 0 0 0 0 -0 0 0 0 0 0 1 0 0 1 1 0 1 1 1 1 1 0 -0 -0 -0 -0 -0 -0 -0 -0 -0 -0 -0 -0 -0 -0 -0 -0 -0 0 0 0 0 0 -0 -0
0 0 0 0 0 0 -0 -0 0 0 0 0 0 0 1 1 1 1 1 1 2 2 1 1 1 0 0 0 -0 -0 -0 -0 -0 -0 -0 -0 -0 0 0 0 0 0 0 0 -0 0 0 -0 -0
0 0 0 0 0 0 0 0 0 0 0 0 0 0 1 2 1 2 1 1 2 1 1 1 1 1 1 0 0 0 -0 -0 -0 -0 -0 0 0 0 0 0 0 -0 -0 0 0 0 0 0 0
0 0 0 0 0 0 0 -0 -0 0 0 0 0 1 2 3 3 2 1 0 1 1 0 1 1 1 1 1 0 0 0 0 0 0 0 0 0 0 0 0 0 0 0 0 0 0 0 0 0
0 0 0 0 0 0 0 -0 -0 -0 0 0 0 3 3 3 3 2 1 0 1 1 0 0 1 1 0 1 1 1 0 0 0 0 0 0 0 0 0 0 0 0 0 0 0 0 0 0 0
0 0 0 0 0 0 0 0 0 0 0 0 0 1 4 3 2 1 1 1 0 0 0 0 1 0 0 1 0 0 0 0 0 0 0 0 0 0 0 0 0 0 0 0 0 0 0 0 0
0 0 0 0 0 0 0 0 0 0 0 -0 0 0 1 2 1 1 1 1 1 1 0 0 1 1 1 1 0 0 0 0 0 0 0 0 0 0 0 0 0 0 0 0 0 0 0 0 0
0 0 0 0 0 0 0 0 -0 -0 -0 0 0 0 -0 2 1 1 1 1 1 1 1 1 1 1 1 1 0 0 0 0 0 0 0 0 0 0 0 0 0 0 0 0 0 0 0 -0 0
0 0 0 0 0 0 0 0 -0 0 -0 0 0 0 1 1 1 1 1 1 1 1 1 0 0 1 1 0 0 0 0 0 0 0 0 0 0 0 0 0 0 0 0 0 0 -0 0 0 0
0 0 0 0 0 0 0 0 -0 -0 -0 0 0 0 0 2 1 1 1 1 0 0 0 0 0 0 0 0 0 0 0 0 0 0 0 0 0 0 0 0 0 0 0 0 0 0 0 0 0
0 0 0 0 0 0 0 0 -0 0 -0 0 0 0 0 0 0 0 1 1 0 0 0 0 0 0 0 0 0 0 0 0 0 0 0 0 0 0 0 0 0 0 0 0 0 0 0 0 0
0 0 0 0 0 0 0 0 0 0 0 0 0 0 0 0 0 1 0 0 0 0 0 0 0 0 0 0 0 0 0 0 0 0 0 0 0 0 0 0 0 0 0 0 0 0 0 0 0
0 0 0 0 0 0 0 0 -0 0 0 0 0 0 0 0 0 1 0 0 0 0 0 0 0 0 1 0 0 1 0 0 0 0 0 0 0 0 1 1 0 0 0 0 0 0 0 0 0
0 0 0 0 0 0 0 0 -0 -0 0 0 0 0 0 0 0 1 1 1 0 0 0 0 0 1 1 1 1 1 1 1 1 1 1 1 1 1 1 1 0 0 0 0 0 0 0 0 0
0 0 0 0 0 0 0 0 0 0 0 0 0 0 0 0 0 1 1 1 0 0 0 0 0 0 1 1 2 1 1 1 1 1 1 1 1 0 0 0 0 0 0 0 0 0 0 0 0
0 0 0 0 0 0 0 0 0 0 0 0 0 0 0 0 0 1 1 1 0 0 0 0 0 0 0 1 2 2 1 1 0 0 0 0 0 0 0 0 0 0 0 0 0 0 0 0 0
0 0 0 0 0 0 0 0 0 0 0 0 0 0 0 0 0 1 1 0 0 0 0 0 0 0 0 0 1 0 0 0 0 0 0 0 0 0 0 0 0 0 0 0 0 0 0 0 0
0 0 0 0 -0 0 0 0 0 0 0 0 0 0 0 0 0 1 1 1 0 0 0 0 0 0 0 0 0 0 0 0 0 0 0 0 0 0 0 0 0 0 0 0 0 0 0 0 0
0 0 0 0 0 0 0 0 0 0 0 0 0 0 0 0 0 3 2 1 0 0 0 0 0 0 0 0 0 0 0 0 0 0 0 0 0 0 0 0 0 0 0 0 0 0 0 0 0
0 0 0 0 0 0 0 0 0 0 0 0 0 0 0 0 1 3 2 2 0 0 0 0 0 0 0 0 0 0 0 0 0 0 0 0 0 0 0 0 0 0 0 0 0 0 0 0 0
0 0 0 0 0 0 0 0 0 0 0 0 0 0 0 0 2 3 2 2 1 1 0 0 0 0 0 0 0 0 0 0 0 0 -0 -0 0 0 0 0 0 0 0 0 0 0 0 0 0
0 0 0 0 0 0 0 0 0 0 0 0 0 0 0 2 3 2 2 0 0 0 0 0 0 0 0 0 0 0 0 0 0 -0 -0 -0 0 0 0 0 0 0 0 0 0 0 0 0 0
0 0 -0 0 0 0 0 0 0 0 0 0 0 0 3 3 2 2 1 0 0 0 0 0 0 0 0 0 0 0 0 0 0 0 0 0 0 0 0 0 0 0 0 0 0 0 0 0 0
0 0 -0 0 0 0 0 0 0 0 0 0 1 2 3 3 2 1 0 0 0 0 0 0 0 0 0 0 0 0 0 0 0 0 0 0 0 0 0 0 0 0 0 0 0 0 0 0 0
Wind_Speed_500mb
11 13 9 11 4 7 9 16 6 6 8 6 27 13 48 41 22 11 8 50 60 75 77 71 66 62 54 46 39 36 36 36 37 38 41 42 44 45 42 39 35 31 27 24 24 22 20 18 17
10 12 13 8 9 7 12 12 23 19 16 28 27 21 15 20 26 7 40 63 56 75 79 73 68 64 56 48 41 36 34 34 37 40 43 44 45 44 40 36 31 27 23 20 20 18 16 15 15
10 19 11 9 9 17 15 13 11 15 24 10 12 12 7 10 19 13 35 67 63 78 78 73 69 64 57 50 44 37 34 33 37 41 43 44 43 40 36 32 28 24 22 19 17 16 15 14 14
9 13 3 6 17 17 16 11 9 9 6 9 20 12 3 9 14 42 61 65 75 81 77 74 70 64 58 52 46 39 34 33 35 39 40 40 38 36 33 29 25 22 19 17 18 18 17 16 16
19 7 4 7 15 16 16 21 21 18 6 14 29 11 3 14 24 31 68 63 84 82 77 73 70 65 60 53 47 41 36 33 32 36 38 37 33 32 31 29 27 25 23 21 20 20 20 20 20
13 6 3 19 15 23 28 31 8 12 26 13 16 30 11 20 30 47 63 69 85 78 76 71 68 63 59 54 49 44 37 32 29 31 35 34 32 31 29 28 28 26 25 24 22 22 22 21 18
11 7 12 10 14 29 19 24 14 12 28 14 20 9 8 25 42 60 65 78 82 75 73 70 68 62 58 54 48 44 39 34 30 30 33 34 30 29 28 27 26 25 23 21 20 18 15 11 9
18 8 8 15 20 31 1 13 23 11 18 38 36 14 16 45 61 67 73 81 79 75 73 72 69 65 61 56 50 44 41 36 31 28 29 32 31 28 27 25 23 19 17 15 12 9 6 3 2
20 7 23 21 23 18 7 6 4 7 21 38 27 57 65 63 73 71 80 86 82 77 74 73 72 67 62 58 54 48 43 39 35 31 29 31 32 30 25 22 19 16 13 10 8 5 1 2 4
13 14 22 8 19 10 27 9 16 13 30 53 61 41 60 77 87 83 87 93 88 83 77 71 69 67 64 62 59 54 50 45 38 33 31 30 30 30 27 24 20 16 13 9 5 1 3 3 2
12 32 20 7 28 29 11 10 12 8 20 27 31 58 81 98 94 85 86 91 95 86 80 73 66 64 64 65 63 57 51 46 42 36 31 30 30 31 30 25 20 13 8 8 12 9 10 8 3
13 15 43 11 35 13 5 13 13 36 46 47 37 31 92 106 97 91 88 90 87 83 77 72 67 62 63 63 62 59 54 48 43 36 32 32 32 32 31 26 20 19 15 13 9 4 1 3 6
16 13 27 25 47 53 51 34 18 53 60 58 57 37 72 99 100 95 83 82 79 80 79 73 67 62 57 57 57 53 50 46 39 36 35 34 32 30 30 30 26 18 15 10 8 5 2 8 14
12 35 24 27 43 32 24 32 22 49 49 47 42 53 71 98 93 86 82 81 79 74 73 73 68 59 55 54 52 49 45 41 39 36 35 35 34 32 30 36 26 18 11 9 9 7 8 13 19
29 32 32 31 16 12 15 25 50 73 56 60 59 46 75 91 85 85 80 82 80 72 69 71 69 62 56 52 49 47 43 40 38 35 35 37 38 36 32 28 23 16 14 14 13 12 11 17 25
6 7 8 13 15 15 32 44 66 41 46 53 53 40 70 73 87 87 79 77 83 73 68 66 66 62 58 55 51 46 41 38 37 38 36 36 35 32 30 24 20 16 16 16 12 12 18 25 33
7 12 14 10 21 11 28 38 41 36 39 46 54 44 73 73 87 90 89 84 81 77 71 68 64 60 56 52 50 41 43 38 37 36 31 37 38 33 25 28 28 24 22 27 18 18 23 30 34
15 20 10 13 13 23 33 46 14 15 50 47 51 50 69 75 93 91 89 84 79 77 74 67 59 59 58 53 46 38 46 45 41 37 34 33 36 32 31 28 29 32 36 32 26 26 27 31 36
17 27 30 8 16 14 48 33 30 24 21 26 42 51 49 76 74 78 81 77 80 77 81 73 65 61 62 63 59 52 58 49 43 41 40 42 41 41 37 34 31 30 42 38 31 28 25 28 33
26 31 30 27 31 25 32 35 26 17 17 35 44 40 56 56 68 74 72 72 74 75 83 77 68 63 64 62 65 64 60 53 50 46 43 40 49 44 42 38 28 39 47 29 25 22 21 25 31
31 37 28 26 22 31 27 25 16 19 36 44 46 45 57 70 69 76 83 73 72 74 76 72 66 60 55 68 70 67 52 46 48 48 45 43 47 44 36 36 20 32 32 27 20 19 19 22 27
35 30 30 27 18 14 5 9 20 35 19 28 32 43 59 72 67 69 73 77 74 64 69 71 64 65 60 74 72 62 51 53 50 40 34 34 42 17 11 10 11 41 29 18 14 15 20 24 28
26 28 21 18 16 22 35 8 23 22 25 33 29 50 56 67 71 68 67 62 57 63 58 66 63 68 67 73 78 66 57 64 49 34 28 25 26 5 6 23 40 33 17 11 13 16 20 25 24
19 21 9 3 5 10 27 15 17 18 40 40 24 44 62 60 54 61 59 59 62 59 66 71 68 63 69 71 70 69 60 67 49 21 6 4 9 27 34 35 30 14 10 10 12 16 20 22 25
29 20 8 10 12 10 12 13 25 32 32 37 23 51 60 55 65 59 61 56 54 53 66 69 68 68 68 61 59 57 57 50 46 37 41 21 22 34 22 17 13 11 7 8 14 18 22 23 26
17 23 10 14 14 11 15 14 14 21 17 36 46 53 53 51 56 67 64 56 54 59 69 72 68 59 59 53 47 39 21 45 43 16 41 62 52 26 18 17 12 7 3 10 14 19 21 24 26
11 21 9 9 14 7 10 10 17 8 14 17 28 53 64 62 61 70 63 62 70 73 71 69 56 46 43 43 34 22 21 19 36 41 47 58 36 24 22 15 7 1 8 15 20 23 24 27 31
19 15 7 5 11 14 10 9 10 12 17 22 19 26 50 57 62 61 65 69 75 72 66 56 49 45 38 33 24 36 38 48 44 54 53 46 37 26 16 8 2 9 15 20 25 26 28 32 31
17 9 6 3 7 6 12 9 6 10 9 22 17 46 63 69 68 72 74 76 77 65 55 50 39 34 32 31 44 55 57 55 55 50 43 36 26 15 6 4 9 16 19 22 25 30 29 27 25
13 15 12 7 5 8 5 7 8 13 12 29 32 55 65 80 76 81 90 87 74 63 55 49 41 42 43 44 47 50 55 52 46 38 28 18 12 6 4 8 12 14 18 23 26 22 23 20 16
Wind_Direction_500mb
230 231 207 165 84 70 238 243 221 229 301 185 340 168 172 168 167 213 222 168 171 174 172 173 173 173 171 166 160 156 157 159 162 161 158 154 153 152 151 149 147 145 141 141 144 143 136 130 127
196 192 169 150 131 170 248 187 215 218 226 308 329 118 171 191 216 244 151 164 169 174 173 174 174 175 173 169 162 159 155 156 159 158 155 154 155 154 155 155 152 149 148 147 148 149 142 134 132
173 173 170 152 184 204 233 204 150 243 250 250 304 209 220 207 221 215 175 170 173 173 173 175 176 175 174 172 167 162 157 154 157 158 157 157 157 158 159 159 155 152 152 154 152 150 150 145 142
169 171 175 145 224 250 229 100 85 6 32 207 347 306 299 260 230 178 171 176 176 173 174 176 177 176 175 173 169 165 160 154 157 160 160 159 160 161 160 156 148 145 144 147 150 152 150 147 144
184 173 187 241 247 261 242 257 284 297 86 269 342 277 263 207 174 183 174 176 179 175 174 176 177 177 177 175 172 169 163 156 157 162 163 161 159 157 154 150 146 141 139 142 144 144 147 148 149
179 146 151 225 231 248 253 253 225 242 264 266 280 267 243 222 213 176 173 174 179 177 174 177 177 178 178 177 175 171 167 160 158 163 169 165 159 157 153 147 145 142 139 137 139 142 149 153 155
157 126 215 209 246 256 244 241 195 224 273 204 245 220 265 217 200 174 173 175 179 179 177 177 177 177 179 179 178 175 172 168 166 167 172 172 165 159 157 154 153 150 144 138 138 144 150 153 159
197 135 223 213 219 258 247 205 235 207 274 283 248 210 226 206 183 174 173 177 180 181 180 178 177 179 179 179 180 178 177 176 175 173 175 176 175 170 165 163 160 156 148 146 148 144 151 179 269
193 193 232 220 204 231 289 80 67 296 277 304 288 223 219 199 179 176 178 178 181 181 182 180 179 180 180 181 181 180 180 182 182 182 181 182 183 180 173 165 160 157 155 151 143 139 166 334 342
183 219 224 189 198 225 250 291 309 316 316 295 319 225 206 190 180 180 182 181 182 181 182 184 184 182 182 183 184 183 185 188 190 193 192 189 187 186 183 176 169 165 166 172 146 117 306 265 92
220 236 230 240 236 247 257 259 265 280 280 271 350 164 180 179 181 184 187 185 182 183 183 184 186 186 187 186 186 186 188 191 196 200 199 194 189 189 189 186 184 180 151 166 161 120 70 80 21
277 269 250 279 265 283 276 298 265 248 252 276 292 222 169 174 181 186 188 184 182 186 188 185 187 189 191 192 190 191 192 196 202 204 202 200 196 194 192 186 165 143 134 118 123 104 55 352 347
254 285 293 272 257 263 278 275 264 273 271 271 280 263 192 182 186 192 189 183 180 184 187 188 188 192 193 193 195 196 197 202 205 206 203 201 199 194 189 174 168 164 155 129 134 122 76 335 331
288 301 301 288 270 261 261 270 263 259 272 272 275 204 199 188 190 192 190 187 184 184 185 189 190 190 193 193 195 196 199 202 203 203 203 202 195 184 176 176 175 165 165 173 188 227 305 320 314
261 282 279 267 255 259 238 272 245 248 259 274 278 205 197 197 192 197 198 193 190 188 188 190 191 189 191 192 194 198 199 197 198 197 198 200 195 190 183 182 183 183 192 209 217 232 272 295 304
278 241 273 267 206 240 169 252 254 250 241 248 258 250 197 195 201 203 203 200 196 192 191 188 190 189 190 191 191 194 197 201 201 202 203 200 194 189 191 192 190 199 215 225 220 250 281 295 301
265 258 264 302 242 206 189 238 269 242 219 230 248 244 198 188 198 205 205 207 200 197 189 184 189 190 191 189 186 188 196 196 186 181 191 196 193 196 208 209 206 216 222 235 236 260 274 282 288
223 242 245 247 301 198 237 243 319 270 216 231 237 236 196 188 195 203 206 206 205 198 190 183 184 187 190 184 186 193 192 188 187 191 196 197 199 203 209 217 227 239 241 243 245 259 278 287 299
265 261 268 278 271 253 241 248 242 266 252 227 219 211 179 188 184 189 194 195 198 196 187 189 190 187 188 191 194 200 199 197 201 208 210 213 211 208 213 228 243 263 250 244 251 267 280 293 301
239 250 257 268 270 277 281 259 234 213 238 227 213 199 179 168 164 172 180 183 187 190 192 193 198 202 192 193 198 205 204 206 215 216 221 222 220 217 221 230 230 246 247 251 255 269 286 299 313
235 236 236 256 272 279 279 271 215 210 220 235 214 198 189 183 168 166 173 177 185 190 193 199 206 208 207 204 201 207 206 213 214 215 222 229 218 215 226 221 229 250 248 252 267 284 296 310 318
234 233 223 245 241 243 228 276 208 208 212 228 208 189 196 193 182 175 172 177 182 188 196 202 206 209 220 207 209 199 202 194 201 202 210 219 226 203 34 330 186 252 252 262 278 293 303 314 317
238 224 202 246 244 322 274 236 231 174 210 219 217 193 202 199 188 180 180 180 183 190 198 206 206 209 217 210 211 217 213 215 212 207 214 231 222 209 199 222 255 249 260 280 289 308 323 318 320
209 179 152 197 86 241 238 200 220 183 199 210 196 184 203 201 194 190 188 183 184 197 202 205 204 206 213 215 217 223 229 234 224 216 298 239 12 256 231 220 226 245 259 282 310 326 327 327 323
191 153 157 210 202 241 213 216 255 211 204 203 167 179 193 194 200 191 184 186 191 197 200 203 201 208 213 218 221 230 240 231 231 251 264 255 223 206 210 181 178 203 234 296 328 326 323 320 324
185 164 189 173 188 211 154 205 251 210 187 186 174 187 191 198 201 199 190 185 178 181 194 201 204 206 219 215 232 242 220 238 237 237 241 218 255 207 165 172 182 197 328 333 337 336 339 336 333
182 178 135 79 265 155 146 259 297 153 158 159 159 179 192 196 189 185 181 176 178 176 185 194 196 201 210 215 227 235 118 185 183 173 191 196 183 168 171 182 192 34 3 354 345 345 339 333 333
174 137 105 109 218 160 205 193 186 162 188 174 138 149 167 165 160 152 161 173 170 173 181 184 192 192 197 210 202 162 144 160 191 179 165 160 159 160 163 164 42 1 351 347 342 340 336 333 326
155 133 103 9 258 215 155 234 97 271 289 137 146 140 138 139 143 144 148 157 163 162 162 164 174 184 186 166 150 153 156 161 163 159 153 151 141 141 132 33 358 347 343 340 337 334 333 331 327
177 157 144 176 205 244 142 243 335 254 217 135 131 133 133 137 142 135 148 151 146 148 152 155 157 153 140 136 136 138 139 144 148 152 148 136 135 120 20 353 339 329 337 337 334 339 340 348 354
Wind_Speed_850mb
11 13 9 11 4 7 9 16 6 6 8 6 27 13 48 41 22 11 8 50 60 75 77 71 66 62 54 46 39 36 36 36 37 38 41 42 44 45 42 39 35 31 27 24 24 22 20 18 17
10 12 13 8 9 7 12 12 23 19 16 28 27 21 15 20 26 7 40 63 56 75 79 73 68 64 56 48 41 36 34 34 37 40 43 44 45 44 40 36 31 27 23 20 20 18 16 15 15
10 19 11 9 9 17 15 13 11 15 24 10 12 12 7 10 19 13 35 67 63 78 78 73 69 64 57 50 44 37 34 33 37 41 43 44 43 40 36 32 28 24 22 19 17 16 15 14 14
9 13 3 6 17 17 16 11 9 9 6 9 20 12 3 9 14 42 61 65 75 81 77 74 70 64 58 52 46 39 34 33 35 39 40 40 38 36 33 29 25 22 19 17 18 18 17 16 16
19 7 4 7 15 16 16 21 21 18 6 14 29 11 3 14 24 31 68 63 84 82 77 73 70 65 60 53 47 41 36 33 32 36 38 37 33 32 31 29 27 25 23 21 20 20 20 20 20
13 6 3 19 15 23 28 31 8 12 26 13 16 30 11 20 30 47 63 69 85 78 76 71 68 63 59 54 49 44 37 32 29 31 35 34 32 31 29 28 28 26 25 24 22 22 22 21 18
11 7 12 10 14 29 19 24 14 12 28 14 20 9 8 25 42 60 65 78 82 75 73 70 68 62 58 54 48 44 39 34 30 30 33 34 30 29 28 27 26 25 23 21 20 18 15 11 9
18 8 8 15 20 31 1 13 23 11 18 38 36 14 16 45 61 67 73 81 79 75 73 72 69 65 61 56 50 44 41 36 31 28 29 32 31 28 27 25 23 19 17 15 12 9 6 3 2
20 7 23 21 23 18 7 6 4 7 21 38 27 57 65 63 73 71 80 86 82 77 74 73 72 67 62 58 54 48 43 39 35 31 29 31 32 30 25 22 19 16 13 10 8 5 1 2 4
13 14 22 8 19 10 27 9 16 13 30 53 61 41 60 77 87 83 87 93 88 83 77 71 69 67 64 62 59 54 50 45 38 33 31 30 30 30 27 24 20 16 13 9 5 1 3 3 2
12 32 20 7 28 29 11 10 12 8 20 27 31 58 81 98 94 85 86 91 95 86 80 73 66 64 64 65 63 57 51 46 42 36 31 30 30 31 30 25 20 13 8 8 12 9 10 8 3
13 15 43 11 35 13 5 13 13 36 46 47 37 31 92 106 97 91 88 90 87 83 77 72 67 62 63 63 62 59 54 48 43 36 32 32 32 32 31 26 20 19 15 13 9 4 1 3 6
16 13 27 25 47 53 51 34 18 53 60 58 57 37 72 99 100 95 83 82 79 80 79 73 67 62 57 57 57 53 50 46 39 36 35 34 32 30 30 30 26 18 15 10 8 5 2 8 14
12 35 24 27 43 32 24 32 22 49 49 47 42 53 71 98 93 86 82 81 79 74 73 73 68 59 55 54 52 49 45 41 39 36 35 35 34 32 30 36 26 18 11 9 9 7 8 13 19
29 32 32 31 16 12 15 25 50 73 56 60 59 46 75 91 85 85 80 82 80 72 69 71 69 62 56 52 49 47 43 40 38 35 35 37 38 36 32 28 23 16 14 14 13 12 11 17 25
6 7 8 13 15 15 32 44 66 41 46 53 53 40 70 73 87 87 79 77 83 73 68 66 66 62 58 55 51 46 41 38 37 38 36 36 35 32 30 24 20 16 16 16 12 12 18 25 33
7 12 14 10 21 11 28 38 41 36 39 46 54 44 73 73 87 90 89 84 81 77 71 68 64 60 56 52 50 41 43 38 37 36 31 37 38 33 25 28 28 24 22 27 18 18 23 30 34
15 20 10 13 13 23 33 46 14 15 50 47 51 50 69 75 93 91 89 84 79 77 74 67 59 59 58 53 46 38 46 45 41 37 34 33 36 32 31 28 29 32 36 32 26 26 27 31 36
17 27 30 8 16 14 48 33 30 24 21 26 42 51 49 76 74 78 81 77 80 77 81 73 65 61 62 63 59 52 58 49 43 41 40 42 41 41 37 34 31 30 42 38 31 28 25 28 33
26 31 30 27 31 25 32 35 26 17 17 35 44 40 56 56 68 74 72 72 74 75 83 77 68 63 64 62 65 64 60 53 50 46 43 40 49 44 42 38 28 39 47 29 25 22 21 25 31
31 37 28 26 22 31 27 25 16 19 36 44 46 45 57 70 69 76 83 73 72 74 76 72 66 60 55 68 70 67 52 46 48 48 45 43 47 44 36 36 20 32 32 27 20 19 19 22 27
35 30 30 27 18 14 5 9 20 35 19 28 32 43 59 72 67 69 73 77 74 64 69 71 64 65 60 74 72 62 51 53 50 40 34 34 42 17 11 10 11 41 29 18 14 15 20 24 28
26 28 21 18 16 22 35 8 23 22 25 33 29 50 56 67 71 68 67 62 57 63 58 66 63 68 67 73 78 66 57 64 49 34 28 25 26 5 6 23 40 33 17 11 13 16 20 25 24
19 21 9 3 5 10 27 15 17 18 40 40 24 44 62 60 54 61 59 59 62 59 66 71 68 63 69 71 70 69 60 67 49 21 6 4 9 27 34 35 30 14 10 10 12 16 20 22 25
29 20 8 10 12 10 12 13 25 32 32 37 23 51 60 55 65 59 61 56 54 53 66 69 68 68 68 61 59 57 57 50 46 37 41 21 22 34 22 17 13 11 7 8 14 18 22 23 26
17 23 10 14 14 11 15 14 14 21 17 36 46 53 53 51 56 67 64 56 54 59 69 72 68 59 59 53 47 39 21 45 43 16 41 62 52 26 18 17 12 7 3 10 14 19 21 24 26
11 21 9 9 14 7 10 10 17 8 14 17 28 53 64 62 61 70 63 62 70 73 71 69 56 46 43 43 34 22 21 19 36 41 47 58 36 24 22 15 7 1 8 15 20 23 24 27 31
19 15 7 5 11 14 10 9 10 12 17 22 19 26 50 57 62 61 65 69 75 72 66 56 49 45 38 33 24 36 38 48 44 54 53 46 37 26 16 8 2 9 15 20 25 26 28 32 31
17 9 6 3 7 6 12 9 6 10 9 22 17 46 63 69 68 72 74 76 77 65 55 50 39 34 32 31 44 55 57 55 55 50 43 36 26 15 6 4 9 16 19 22 25 30 29 27 25
13 15 12 7 5 8 5 7 8 13 12 29 32 55 65 80 76 81 90 87 74 63 55 49 41 42 43 44 47 50 55 52 46 38 28 18 12 6 4 8 12 14 18 23 26 22 23 20 16
Wind_Direction_850mb
230 231 207 165 84 70 238 243 221 229 301 185 340 168 172 168 167 213 222 168 171 174 172 173 173 173 171 166 160 156 157 159 162 161 158 154 153 152 151 149 147 145 141 141 144 143 136 130 127
196 192 169 150 131 170 248 187 215 218 226 308 329 118 171 191 216 244 151 164 169 174 173 174 174 175 173 169 162 159 155 156 159 158 155 154 155 154 155 155 152 149 148 147 148 149 142 134 132
173 173 170 152 184 204 233 204 150 243 250 250 304 209 220 207 221 215 175 170 173 173 173 175 176 175 174 172 167 162 157 154 157 158 157 157 157 158 159 159 155 152 152 154 152 150 150 145 142
169 171 175 145 224 250 229 100 85 6 32 207 347 306 299 260 230 178 171 176 176 173 174 176 177 176 175 173 169 165 160 154 157 160 160 159 160 161 160 156 148 145 144 147 150 152 150 147 144
184 173 187 241 247 261 242 257 284 297 86 269 342 277 263 207 174 183 174 176 179 175 174 176 177 177 177 175 172 169 163 156 157 162 163 161 159 157 154 150 146 141 139 142 144 144 147 148 149
179 146 151 225 231 248 253 253 225 242 264 266 280 267 243 222 213 176 173 174 179 177 174 177 177 178 178 177 175 171 167 160 158 163 169 165 159 157 153 147 145 142 139 137 139 142 149 153 155
157 126 215 209 246 256 244 241 195 224 273 204 245 220 265 217 200 174 173 175 179 179 177 177 177 177 179 179 178 175 172 168 166 167 172 172 165 159 157 154 153 150 144 138 138 144 150 153 159
197 135 223 213 219 258 247 205 235 207 274 283 248 210 226 206 183 174 173 177 180 181 180 178 177 179 179 179 180 178 177 176 175 173 175 176 175 170 165 163 160 156 148 146 148 144 151 179 269
193 193 232 220 204 231 289 80 67 296 277 304 288 223 219 199 179 176 178 178 181 181 182 180 179 180 180 181 181 180 180 182 182 182 181 182 183 180 173 165 160 157 155 151 143 139 166 334 342
183 219 224 189 198 225 250 291 309 316 316 295 319 225 206 190 180 180 182 181 182 181 182 184 184 182 182 183 184 183 185 188 190 193 192 189 187 186 183 176 169 165 166 172 146 117 306 265 92
220 236 230 240 236 247 257 259 265 280 280 271 350 164 180 179 181 184 187 185 182 183 183 184 186 186 187 186 186 186 188 191 196 200 199 194 189 189 189 186 184 180 151 166 161 120 70 80 21
277 269 250 279 265 283 276 298 265 248 252 276 292 222 169 174 181 186 188 184 182 186 188 185 187 189 191 192 190 191 192 196 202 204 202 200 196 194 192 186 165 143 134 118 123 104 55 352 347
254 285 293 272 257 263 278 275 264 273 271 271 280 263 192 182 186 192 189 183 180 184 187 188 188 192 193 193 195 196 197 202 205 206 203 201 199 194 189 174 168 164 155 129 134 122 76 335 331
288 301 301 288 270 261 261 270 263 259 272 272 275 204 199 188 190 192 190 187 184 184 185 189 190 190 193 193 195 196 199 202 203 203 203 202 195 184 176 176 175 165 165 173 188 227 305 320 314
261 282 279 267 255 259 238 272 245 248 259 274 278 205 197 197 192 197 198 193 190 188 188 190 191 189 191 192 194 198 199 197 198 197 198 200 195 190 183 182 183 183 192 209 217 232 272 295 304
278 241 273 267 206 240 169 252 254 250 241 248 258 250 197 195 201 203 203 200 196 192 191 188 190 189 190 191 191 194 197 201 201 202 203 200 194 189 191 192 190 199 215 225 220 250 281 295 301
265 258 264 302 242 206 189 238 269 242 219 230 248 244 198 188 198 205 205 207 200 197 189 184 189 190 191 189 186 188 196 196 186 181 191 196 193 196 208 209 206 216 222 235 236 260 274 282 288
223 242 245 247 301 198 237 243 319 270 216 231 237 236 196 188 195 203 206 206 205 198 190 183 184 187 190 184 186 193 192 188 187 191 196 197 199 203 209 217 227 239 241 243 245 259 278 287 299
265 261 268 278 271 253 241 248 242 266 252 227 219 211 179 188 184 189 194 195 198 196 187 189 190 187 188 191 194 200 199 197 201 208 210 213 211 208 213 228 243 263 250 244 251 267 280 293 301
239 250 257 268 270 277 281 259 234 213 238 227 213 199 179 168 164 172 180 183 187 190 192 193 198 202 192 193 198 205 204 206 215 216 221 222 220 217 221 230 230 246 247 251 255 269 286 299 313
235 236 236 256 272 279 279 271 215 210 220 235 214 198 189 183 168 166 173 177 185 190 193 199 206 208 207 204 201 207 206 213 214 215 222 229 218 215 226 221 229 250 248 252 267 284 296 310 318
234 233 223 245 241 243 228 276 208 208 212 228 208 189 196 193 182 175 172 177 182 188 196 202 206 209 220 207 209 199 202 194 201 202 210 219 226 203 34 330 186 252 252 262 278 293 303 314 317
238 224 202 246 244 322 274 236 231 174 210 219 217 193 202 199 188 180 180 180 183 190 198 206 206 209 217 210 211 217 213 215 212 207 214 231 222 209 199 222 255 249 260 280 289 308 323 318 320
209 179 152 197 86 241 238 200 220 183 199 210 196 184 203 201 194 190 188 183 184 197 202 205 204 206 213 215 217 223 229 234 224 216 298 239 12 256 231 220 226 245 259 282 310 326 327 327 323
191 153 157 210 202 241 213 216 255 211 204 203 167 179 193 194 200 191 184 186 191 197 200 203 201 208 213 218 221 230 240 231 231 251 264 255 223 206 210 181 178 203 234 296 328 326 323 320 324
185 164 189 173 188 211 154 205 251 210 187 186 174 187 191 198 201 199 190 185 178 181 194 201 204 206 219 215 232 242 220 238 237 237 241 218 255 207 165 172 182 197 328 333 337 336 339 336 333
182 178 135 79 265 155 146 259 297 153 158 159 159 179 192 196 189 185 181 176 178 176 185 194 196 201 210 215 227 235 118 185 183 173 191 196 183 168 171 182 192 34 3 354 345 345 339 333 333
174 137 105 109 218 160 205 193 186 162 188 174 138 149 167 165 160 152 161 173 170 173 181 184 192 192 197 210 202 162 144 160 191 179 165 160 159 160 163 164 42 1 351 347 342 340 336 333 326
155 133 103 9 258 215 155 234 97 271 289 137 146 140 138 139 143 144 148 157 163 162 162 164 174 184 186 166 150 153 156 161 163 159 153 151 141 141 132 33 358 347 343 340 337 334 333 331 327
177 157 144 176 205 244 142 243 335 254 217 135 131 133 133 137 142 135 148 151 146 148 152 155 157 153 140 136 136 138 139 144 148 152 148 136 135 120 20 353 339 329 337 337 334 339 340 348 354